Flag for United Kingdom Weather past 2 weeks in Poole, England, United Kingdom

Now
50 °F

Rain. Broken clouds.


Feels Like: 47 °F
Forecast: 48 / 59 °F
Wind: 7 mph from Southeast

Location: Bournemouth Airport


UV Index: 3 (Moderate)

Visibility: 1 mi


Pressure: 29.59 "Hg

Humidity: 100%

Dew point: 50 °F

Location of PooleLocation

Historic Weather in Poole

°F

Poole temperature yesterday

Maximum temperature yesterday: 111 °F (at 7:20 AM)
Minimum temperature yesterday: 36 °F (at 4:50 AM)
Average temperature yesterday: 49 °F

Past Weeks' High & Low Weather Summary

 TemperatureHumidityPressure
High111 °F (Apr 19, 7:20 AM)100% (Apr 5, 4:50 PM)30.42 "Hg (Apr 5, 4:50 PM)
Low34 °F (Apr 9, 4:50 AM)7% (Apr 19, 7:20 AM)29.59 "Hg (Apr 20, 1:20 PM)
Average51 °F76%30.12 "Hg
* Reported Apr 5 2:20 PM — Apr 20 2:50 PM, Poole, Weather by CustomWeather, © 2014

Note: Actual official high and low records may vary slightly from our data, if they occured in-between our weather recording intervals... More about our weather records

Advertising

Historic Weather Conditions — Data for Previous 24 hours

 ConditionsComfort  
Time TempWeatherWind HumidityBarometerVisibility
2:50 PM
Apr 20
52 °FRain. Broken clouds.7 mph94%29.59 "Hg1 mi
2:20 PM52 °FRain. Partly sunny.8 mph94%29.59 "Hg1 mi
1:50 PM52 °FRain. Low clouds.8 mph94%29.59 "Hg1 mi
1:20 PM52 °FLight rain. Overcast.7 mph94%29.59 "Hg2 mi
12:50 PM50 °FRain. Overcast.10 mph94%29.62 "Hg2 mi
12:20 PM50 °FLight rain. Partly sunny.15 mph94%29.62 "Hg2 mi
11:50 AM50 °FRain. Partly sunny.13 mph94%29.62 "Hg2 mi
11:20 AM48 °FLight rain. Partly sunny.9 mph94%29.65 "Hg2 mi
10:50 AM50 °FLight rain. Low clouds.16 mph88%29.65 "Hg3 mi
10:20 AM50 °FLight rain. Low clouds.15 mph88%29.68 "Hg3 mi
9:50 AM48 °FLight rain. Low clouds.14 mph94%29.68 "Hg3 mi
9:20 AM48 °FRain. Low clouds.15 mph94%29.68 "Hg3 mi
8:50 AM48 °FRain. Low clouds.15 mph87%29.68 "Hg3 mi
8:20 AM48 °FPartly sunny.15 mph87%29.71 "Hg4 mi
7:50 AM48 °FPartly sunny.15 mph87%29.71 "Hg4 mi
7:20 AM46 °FPartly sunny.17 mph93%29.71 "Hg5 mi
6:50 AM46 °FPassing clouds.15 mph87%29.74 "Hg6 mi
6:20 AM46 °FPassing clouds.16 mph87%29.74 "Hg5 mi
5:50 AM46 °FPassing clouds.13 mph87%29.77 "Hg6 mi
4:50 AM45 °FClear.14 mph87%29.80 "Hg10 mi
11:20 PM
Apr 19
45 °FClear.7 mph76%29.95 "Hg10 mi
10:50 PM45 °FClear.8 mph76%29.95 "Hg10 mi
10:20 PM43 °FPassing clouds.6 mph87%29.95 "HgN/A
9:50 PM45 °FPassing clouds.5 mph81%29.95 "HgN/A
9:20 PM46 °FPassing clouds.3 mph82%29.98 "HgN/A
8:20 PM48 °FPartly sunny.1 mph76%29.98 "HgN/A
7:50 PM50 °FPartly sunny.5 mph71%29.95 "HgN/A
7:20 PM50 °FPassing clouds.5 mph76%29.95 "HgN/A
6:50 PM52 °FPassing clouds.7 mph72%29.95 "HgN/A
6:20 PM52 °FPassing clouds.6 mph67%29.98 "HgN/A
5:50 PM52 °FPassing clouds.7 mph62%29.98 "HgN/A
4:50 PM54 °FPassing clouds.6 mph58%29.98 "HgN/A
4:20 PM52 °FScattered clouds.7 mph62%29.98 "HgN/A
Weather by CustomWeather, © 2014

See weather overview